User: anonymous   Login
Location: Unspecified
(0.0000°N, 0.0000°E)
Time: 03:35:46
(UTC+00:00)
Language:

NOAA 15 - Orbit

View from above orbital plane
View from above orbital plane
View from above satellite
View from above satellite

Ground track
Ground track

The orbit data is extracted from the following two-line orbital elements,

1 25338U 98030A   17177.54837110 +.00000062 +00000-0 +45107-4 0  9992
2 25338 098.7813 188.4779 0010685 173.2298 186.9027 14.25801678994079
Epoch (UTC): 26 June 2017 13:09:39
Eccentricity: 0.0010685
inclination: 98.7813°
perigee height: 798 km
apogee height: 813 km
right ascension of ascending node: 188.4779°
argument of perigee: 173.2298°
revolutions per day: 14.25801678
mean anomaly at epoch: 186.9027°
orbit number at epoch: 99407

The dashed part of the orbit path shows where the satellite is in the earth's shadow,  

DLR